FW6363 Weather Reports


Display with metric or nautical units.
time (UTC)temp
F
wind
direction
speed
MPH
gust
MPH
rain 1hr
in
rain 24hr
in
rain mn
in
humidity
%
barometer
mb
20260502123047 73 360 1.0 4.0 0.00 0.00 0.00 23 1012.6
20260502121547 73 48 0.0 2.0 0.00 0.00 0.00 23 1012.3
20260502114626 74 360 1.0 4.0 0.00 0.00 0.00 21 1012.3
20260502113050 75 0 0.0 4.0 0.00 0.00 0.00 21 1012.2
20260502111546 76 360 3.0 12.0 0.00 0.00 0.00 20 1011.9
20260502110051 75 360 5.0 11.0 0.00 0.00 0.00 20 1011.9
20260502104550 76 360 3.0 12.0 0.00 0.00 0.00 20 1011.7
20260502103107 76 360 7.0 16.0 0.00 0.00 0.00 20 1011.6
20260502101603 76 360 6.0 15.0 0.00 0.00 0.00 21 1011.6
20260502100206 75 360 3.0 13.0 0.00 0.00 0.00 21 1011.6
20260502070104 78 360 5.0 9.0 0.00 0.00 0.00 21 1011.3
20260502064613 78 360 2.0 5.0 0.00 0.00 0.00 19 1011.2
20260502063054 79 360 1.0 3.0 0.00 0.00 0.00 19 1011.1
20260502061546 79 0 1.0 6.0 0.00 0.00 0.00 18 1010.9
20260502060052 79 360 4.0 11.0 0.00 0.00 0.00 20 1010.9
20260502054552 80 360 6.0 11.0 0.00 0.00 0.00 19 1010.8
20260502053057 80 360 0.0 3.0 0.00 0.00 0.00 17 1010.6
20260502051551 80 360 2.0 3.0 0.00 0.00 0.00 17 1010.7
20260502050052 80 360 3.0 4.0 0.00 0.00 0.00 18 1010.6
20260502044546 81 360 2.0 4.0 0.00 0.00 0.00 18 1010.4
20260502043117 81 360 3.0 6.0 0.00 0.00 0.00 18 1010.4
20260502041558 81 360 3.0 6.0 0.00 0.00 0.00 18 1010.3
20260502040045 81 360 3.0 6.0 0.00 0.00 0.00 18 1010.2
20260502034545 81 360 4.0 6.0 0.00 0.00 0.00 19 1009.9
20260502033054 81 360 4.0 8.0 0.00 0.00 0.00 19 1009.9
20260502031547 82 360 3.0 12.0 0.00 0.00 0.00 19 1009.6
20260502030050 81 360 6.0 9.0 0.00 0.00 0.00 20 1009.5
20260502024551 81 360 6.0 10.0 0.00 0.00 0.00 21 1009.2
20260502023050 82 360 4.0 6.0 0.00 0.00 0.00 20 1008.9
20260502021547 82 360 3.0 6.0 0.00 0.00 0.00 20 1008.9
20260502020047 83 360 3.0 9.0 0.00 0.00 0.00 19 1008.9
20260502014546 83 360 4.0 10.0 0.00 0.00 0.00 19 1009.0
20260502013051 84 360 7.0 11.0 0.00 0.00 0.00 18 1008.9
20260502011545 84 360 7.0 13.0 0.00 0.00 0.00 18 1009.0
20260502010044 85 360 8.0 14.0 0.00 0.00 0.00 18 1009.0
20260502004547 85 360 5.0 13.0 0.00 0.00 0.00 18 1009.0
20260502003047 85 360 7.0 14.0 0.00 0.00 0.00 18 1009.1
20260502001550 85 360 5.0 14.0 0.00 0.00 0.00 18 1008.9
20260502000047 86 360 5.0 13.0 0.00 0.00 0.00 17 1009.1
20260501234553 86 360 4.0 12.0 0.00 0.00 0.00 16 1009.1
20260501233109 86 360 8.0 20.0 0.00 0.00 0.00 18 1009.2
20260501231614 86 360 4.0 17.0 0.00 0.00 0.00 19 1009.1
20260501230100 85 360 8.0 18.0 0.00 0.00 0.00 20 1009.3
20260501224559 86 360 7.0 17.0 0.00 0.00 0.00 21 1009.5
20260501223054 86 360 4.0 14.0 0.00 0.00 0.00 21 1009.6
20260501221546 85 360 8.0 20.0 0.00 0.00 0.00 21 1009.8
20260501220100 84 360 9.0 20.0 0.00 0.00 0.00 22 1010.0
20260501214550 86 360 6.0 13.0 0.00 0.00 0.00 19 1010.1
20260501213051 85 360 8.0 14.0 0.00 0.00 0.00 19 1010.4
20260501211552 86 360 9.0 15.0 0.00 0.00 0.00 20 1010.6
20260501210047 85 360 7.0 15.0 0.00 0.00 0.00 22 1010.9
20260501204559 85 360 4.0 12.0 0.00 0.00 0.00 22 1010.9
20260501203046 85 360 3.0 12.0 0.00 0.00 0.00 22 1011.1
20260501201549 84 360 9.0 16.0 0.00 0.00 0.00 23 1011.2
20260501200047 84 360 10.0 19.0 0.00 0.00 0.00 22 1011.1
20260501194548 85 360 4.0 13.0 0.00 0.00 0.00 22 1011.5
20260501193048 83 360 6.0 16.0 0.00 0.00 0.00 24 1011.6
20260501191545 82 360 7.0 17.0 0.00 0.00 0.00 25 1011.9
20260501190046 82 360 9.0 16.0 0.00 0.00 0.00 26 1012.0
20260501184551 81 360 2.0 13.0 0.00 0.00 0.00 27 1012.1
20260501183053 82 360 4.0 11.0 0.00 0.00 0.00 26 1012.3
20260501181547 81 360 1.0 8.0 0.00 0.00 0.00 27 1012.4
20260501180056 79 360 5.0 13.0 0.00 0.00 0.00 28 1012.7
20260501174545 79 360 2.0 9.0 0.00 0.00 0.00 29 1012.9
20260501173050 80 360 2.0 10.0 0.00 0.00 0.00 30 1012.8
20260501171556 80 360 3.0 10.0 0.00 0.00 0.00 30 1013.0
20260501170046 78 360 7.0 10.0 0.00 0.00 0.00 32 1012.9
20260501164547 78 360 2.0 8.0 0.00 0.00 0.00 32 1012.7
20260501163049 76 360 2.0 6.0 0.00 0.00 0.00 34 1012.8
20260501161550 75 360 2.0 10.0 0.00 0.00 0.00 35 1012.9
20260501160050 75 0 1.0 6.0 0.00 0.00 0.00 36 1012.8
20260501154553 74 360 1.0 8.0 0.00 0.00 0.00 37 1012.7
20260501153053 73 360 2.0 6.0 0.00 0.00 0.00 38 1012.5
20260501151554 71 360 0.0 5.0 0.00 0.00 0.00 40 1012.4
20260501150047 70 0 0.0 8.0 0.00 0.00 0.00 42 1012.3
20260501144552 69 0 1.0 5.0 0.00 0.00 0.00 42 1012.2
20260501143100 68 0 0.0 5.0 0.00 0.00 0.00 43 1012.0